ARIANE 1 DEB, 40778

Orbit data source: Space-Track

ARIANE 1 DEB, 40778 is space debris in HEO originally from a launch on Mon, 24 Dec 1979 UTC launched from the French Guiana (FRGUI). Debris objects in space refer to the collection of defunct objects orbiting the Earth. Examples of debris include non-operational satellites, rocket bodies, and fragments generated from explosions, collisions, or faulty payload assembly.

Loading next visibility...
Identifier
40778, 1979-104AF
Orbit
HEO
Country
Flag of FRFR
Related business
Manufacturer
Unknown
Mission
Spacecraft
Bus & Motor
Unknown
Mass
Unknown
Launch date (UTC)
1979-12-24 (46 years ago)
Launch vehicle
Unknown
Launch site
French Guiana (FRGUI)
Object type
Payload
Rocket body
Debris
Shape & HBR
Unknown
Radar Cross Section
Small (<0.1 m²)

Expand to show TLE details & history
Last TLE update: 3 days ago

TLE from 3 days ago
0 ARIANE 1 DEB
1 40778U 79104AF  25256.95468361  .00000629  00000-0  12760-2 0  9994
2 40778  17.9934  70.1281 4848895 213.8165  84.3843  5.57584468239064
Epoch: 2025-09-13T22:54Z
TLE epoch observation values (Epoch: 2025-09-13T22:54:44.663Z)
Latitude
-3.30806°
Longitude
83.03694°
Altitude
9,319.823 km
Speed
4.595 km/s
True Right ascension
03h 59m 36s
True Declination
-3° 17' 57"
Sunlit
Object was in daylight at epoch
Visualization orbit readout
Latitude
Unknown
Longitude
Unknown
Altitude
Unknown
Speed
Unknown
Apparent Right ascension
Unknown
Apparent Declination
Unknown
Sunlit
N/A
Visualization observer readout
Local Sidereal Time
14:30:59
Azimuth
Unknown
Elevation
Unknown
Doppler factor
Unknown
Orbital elements
Apogee altitude
13,575.63 km
Perigee altitude
543.856 km
Semi-major axis
13,437.88 km
Eccentricity
0.48489
Inclination
17.9934°
RAAN
70.1281°
Arg. of periapsis
213.8165°
True anomaly
135.49146°
Mean anomaly
84.3843°
Eccentric anomaly
110.42051°
Mean motion
1.39331 °/min
Orbital period
258.38 mins
BSTAR
0.001276
Loading maneuver chart data...
Computing Atmospheric mass density...
Loading historical data...
Loading historical data...
Loading historical data...
Loading historical data...
Loading historical data...
Loading historical data...
Loading historical data...

Documentation

Showing up to 5 results
|